STARLINK-31283, 59174

Orbit data source: Space-Track

STARLINK-31283, 59174 is a payload satellite owned by SpaceX/Seattle (US) in LEO that was launched on Mon, 04 Mar 2024 UTC via an FALCON 9 launch vehicle from the Air Force Eastern Test Range (AFETR). Payload-class satellites include a variety of spacecraft equipped with specific instruments for various scientific and technological missions. These include communications satellites like Starlink; space stations such as the ISS; scientific satellites like the Hubble; Earth observation satellites from companies like Planet Labs, Umbra, and HawkEye 360; GPS; miniature CubeSats for education and research; and military/defense satellites.

Loading next visibility...
Identifier
59174, 2024-044Y
Orbit
LEO
Country
Flag of USUS
Related business
Manufacturer
SpaceX/Seattle
Mission
Operational Commercial Communications
Bus & Motor
STARLINK V2M, Unknown motor
Mass
730 kg wet, ~700 kg dry
Launch date (UTC)
2024-03-04 (2 years ago)
Launch vehicle
FALCON 9
Launch site
Air Force Eastern Test Range (AFETR)
Object type
Payload
Rocket body
Debris
Shape & HBR
Box + 2 Pan, 17.7 m
Radar Cross Section
33.884 m², Large (>1 m²)

Expand to show TLE details & history
Last TLE update: 2 days ago

TLE from 2 days ago
0 STARLINK-31283
1 59174U 24044Y   26171.41668980  .00019934  00000-0  73225-3 0  9997
2 59174  42.9993 199.9640 0001276 275.0372 269.0624 15.27565562  5833
Epoch: 2026-06-20T10:00Z
TLE epoch observation values (Epoch: 2026-06-20T10:00:01.998Z)
Latitude
-2.85947°
Longitude
-35.62243°
Altitude
483.298 km
Speed
7.625 km/s
True Right ascension
01h 32m 04s
True Declination
-2° 50' 30"
Sunlit
Object was in daylight at epoch
Visualization orbit readout
Latitude
Unknown
Longitude
Unknown
Altitude
Unknown
Speed
Unknown
Apparent Right ascension
Unknown
Apparent Declination
Unknown
Sunlit
N/A
Visualization observer readout
Local Sidereal Time
21:28:42
Azimuth
Unknown
Elevation
Unknown
Doppler factor
Unknown
Orbital elements
Apogee altitude
485.913 km
Perigee altitude
484.162 km
Semi-major axis
6,863.175 km
Eccentricity
0.00013
Inclination
42.9993°
RAAN
199.964°
Arg. of periapsis
275.0372°
True anomaly
269.04778°
Mean anomaly
269.0624°
Eccentric anomaly
269.05509°
Mean motion
3.81729 °/min
Orbital period
94.31 mins
BSTAR
0.00073225
Loading maneuver chart data...
Computing Atmospheric mass density...
Loading historical data...
Loading historical data...
Loading historical data...
Loading historical data...
Loading historical data...
Loading historical data...
Loading historical data...

Documentation

Showing up to 5 results
|